Regional Weather Roundup
Issued by NWS

Home | Current Version | Previous Version | Graphics & Text | Print | Product List | Glossary On
Versions: 1 2 3 4 5 6 7 8 9 10 11 12 13 14 15 16 17 18 19 20 21 22 23 24 25 26 27
000
ASUS45 KSLC 222310
RWRUT

UTAH REGIONAL WEATHER ROUNDUP
NATIONAL WEATHER SERVICE SALT LAKE CITY UT
500 PM MDT SUN APR 22 2018

UTZ001>011-023>025-230000-

NORTHERN UTAH

CITY           SKY/WX    TMP DP  RH WIND       PRES   REMARKS
BRIGHAM CITY   SUNNY     73  23  15 S6        29.99F
HILL AFB       SUNNY     71  25  18 W5        30.00F
LOGAN          SUNNY     77  32  19 VRB5      29.98F
OGDEN          SUNNY     73  24  16 VRB6      29.98F
SALT LAKE CITY PTSUNNY   76  27  16 VRB5      29.96F
TOOELE VALLEY  SUNNY     73  37  27 N12       29.97F
WENDOVER       MOSUNNY   77  26  15 SE8       29.93F
HEBER CITY       N/A     72  21  15 SW16      30.01F
WEST JORDAN    SUNNY     72  37  27 CALM      29.99F

$$

UTZ011>015-024>027-230000-

CENTRAL/NORTHEAST UTAH

CITY           SKY/WX    TMP DP  RH WIND       PRES   REMARKS
PROVO AIRPORT  MOSUNNY   73  30  20 W6        29.99F
MOAB/CANYONLAN MOSUNNY   74  27  17 SW7       29.97F
DELTA          SUNNY     72  21  15 SW8       29.99F
PRICE          MOSUNNY   71  23  16 VRB7      30.04F
RICHFIELD      PTSUNNY   73  30  20 W9G15     30.00F
ROOSEVELT      SUNNY     72  25  17 CALM      30.04F
VERNAL         SUNNY     71  25  17 W3        30.02F

$$

UTZ013>016-019>022-027-230000-

SOUTHERN UTAH

CITY           SKY/WX    TMP DP  RH WIND       PRES   REMARKS
BRYCE CANYON   CLOUDY    62  19  19 S9        30.14F
CEDAR CITY     MOSUNNY   74  24  15 W10       30.01F
MILFORD        SUNNY     74  26  16 SW8       29.98
ST GEORGE      CLEAR     84  23  10 VRB3      29.88F
HANKSVILLE     MOSUNNY   77  27  15 CALM      30.00F
KANAB          SUNNY     79  12   8 SW3G13    30.02F
BLANDING         N/A     69  26  20 SW8       30.12F

$$

REGIONAL REPORTS     COLORADO/ARIZONA

CITY           SKY/WX    TMP DP  RH WIND       PRES   REMARKS
CRAIG, CO      SUNNY     66  29  24 W7        30.09F
GRAND JUNCTION MOSUNNY   74  28  18 VRB5      30.00F
RIFLE, CO      SUNNY     69  26  20 CALM      30.05F
MONTROSE, CO   MOSUNNY   69  18  14 N6        30.06F
CORTEZ, CO     PTSUNNY   70  19  14 CALM      30.05F
COLORADO CITY    N/A     81  21  11 N3G20     30.01F
PAGE, AZ       SUNNY     79  21  11 NE10      29.96F
GRAND CANYON   PTSUNNY   72  12  10 SW8G18    30.09F
KINGMAN, AZ    SUNNY     85  24  11 CALM      29.92F
FLAGSTAFF, AZ  SUNNY     69  19  15 SW14      30.11F

$$

REGIONAL REPORTS    NEVADA/IDAHO/WYOMING

CITY           SKY/WX    TMP DP  RH WIND       PRES   REMARKS
LAS VEGAS, NV  MOSUNNY   90  21   8 E8        29.84F
ELY, NY        PTSUNNY   72  16  12 SW12      30.02F
ELKO, NV       SUNNY     74  31  20 W10G21    29.95F
POCATELLO, ID  MOSUNNY   74  32  21 W9        29.96F
BURLEY, ID     MOSUNNY   65  36  34 W13G23    29.96F
FORT BRIDGER,  CLOUDY    67  20  16 E5        30.11F
EVANSTON, WY   SUNNY     66  22  18 W13G18    30.09F
ROCK SPRINGS,  SUNNY     66   9  10 W12G20    30.08F
KEMMERER, WY   SUNNY     64  14  14 W5        30.10S

$$




USA.gov is the U.S. government's official web portal to all federal, state and local government web resources and services.